File timestamp: Thu Sep  1 01:00:00 2016, Internal temp: 21.820068359375
1472691601, 0.118719160556793, -0.0808314830064774, 0.118200957775116, 32690, 31844, 23295, 135.107131958008
1472691602, 0.132076039910316, -0.080471009016037, 0.118903152644634, 32688, 31838, 23301, NaN
1472691603, 0.14376874268055, -0.0804095715284348, 0.119010508060455, 32700, 31833, 23286, NaN
1472691604, 0.154205456376076, -0.0802580192685127, 0.119050219655037, 32700, 31825, 23288, NaN
1472691605.008, 0.16231581568718, -0.0803453251719475, 0.119184292852879, 32694, 31835, 23298, NaN
1472691606.008, 0.167480394244194, -0.0803627148270607, 0.118834957480431, 32690, 31845, 23287, NaN
1472691607.008, 0.170993313193321, -0.0810737386345863, 0.119517594575882, 32696, 31842, 23286, NaN
1472691608.008, 0.172583013772964, -0.0811893790960312, 0.119104258716106, 32687, 31843, 23298, NaN
1472691608.008, 0.172785922884941, -0.0808965787291527, 0.11971477419138, 32694, 31846, 23292, NaN
1472691609.014, 0.171058058738708, -0.0815693661570549, 0.119373723864555, 32692, 31845, 23291, NaN
1472691610.014, 0.167264014482498, -0.0819024667143822, 0.119446717202663, 32676, 31857, 23294, NaN
1472691611.014, 0.162505060434341, -0.0823295116424561, 0.118938058614731, 32697, 31858, 23286, NaN
1472691612.014, 0.156986027956009, -0.0827429667115211, 0.119988948106766, 32689, 31853, 23287, NaN
1472691612.014, 0.150547608733177, -0.0832971855998039, 0.119830347597599, 32697, 31845, 23289, NaN
1472691613.016, 0.143479466438293, -0.0833921357989311, 0.119765408337116, 32686, 31841, 23288, NaN
1472691614.016, 0.136475667357445, -0.0836949646472931, 0.12039365619421, 32695, 31852, 23291, NaN
1472691615.024, 0.128896191716194, -0.082961305975914, 0.119985908269882, 32692, 31859, 23295, NaN
1472691616.024, 0.120032116770744, -0.0827893987298012, 0.121182553470135, 32700, 31848, 23279, NaN
1472691617.024, 0.110242895781994, -0.082956038415432, 0.121112056076527, 32679, 31839, 23286, NaN
1472691618.024, 0.100971736013889, -0.082750141620636, 0.120764642953873, 32695, 31840, 23289, NaN
1472691619.024, 0.0906915739178658, -0.0819417759776115, 0.119841143488884, 32693, 31838, 23295, NaN
1472691620.024, 0.0797155275940895, -0.0823636502027512, 0.120052635669708, 32690, 31844, 23289, NaN
1472691621.024, 0.0696568116545677, -0.0814133808016777, 0.120011165738106, 32691, 31839, 23297, NaN
1472691622.024, 0.0609890893101692, -0.0813542008399963, 0.119982734322548, 32695, 31830, 23281, NaN
1472691623.024, 0.0517896302044392, -0.0820787996053696, 0.119959816336632, 32682, 31837, 23295, NaN
1472691624.024, 0.0422111973166466, -0.0822973623871803, 0.120007358491421, 32690, 31838, 23281, NaN
1472691625.024, 0.033605083823204, -0.0820823386311531, 0.119751773774624, 32695, 31852, 23297, NaN
1472691626.024, 0.0254804212599993, -0.0812641233205795, 0.119772851467133, 32688, 31856, 23298, NaN
1472691627.034, 0.0173779241740704, -0.0817404165863991, 0.119095325469971, 32684, 31843, 23297, NaN
1472691628.034, 0.00901278760284185, -0.0820079073309898, 0.119484439492226, 32701, 31831, 23293, NaN
1472691629.034, -0.000194256077520549, -0.0820948109030724, 0.119105771183968, 32685, 31842, 23293, NaN
1472691630.034, -0.00858879741281271, -0.082613930106163, 0.118581913411617, 32681, 31852, 23296, NaN
1472691631.034, -0.0151983527466655, -0.0835245475172997, 0.11784428358078, 32702, 31837, 23292, NaN
1472691632.034, -0.0211237370967865, -0.0835541486740112, 0.117979817092419, 32679, 31835, 23296, NaN
1472691633.034, -0.0256149768829346, -0.0835529640316963, 0.118252515792847, 32707, 31860, 23272, NaN
1472691634.034, -0.0279793776571751, -0.0840011015534401, 0.1187824010849, 32681, 31839, 23286, NaN
1472691635.034, -0.0300940312445164, -0.0840666815638542, 0.118637308478355, 32690, 31836, 23302, NaN
1472691636.034, -0.0308814756572247, -0.0842025578022003, 0.11880087852478, 32695, 31836, 23300, NaN
1472691637.034, -0.0303200595080853, -0.0835468396544456, 0.118998035788536, 32691, 31849, 23293, NaN
1472691638.044, -0.0289857480674982, -0.083370603621006, 0.118439756333828, 32682, 31838, 23289, NaN
1472691639.044, -0.0275127198547125, -0.0837869569659233, 0.118426911532879, 32686, 31841, 23299, NaN
1472691640.044, -0.0262698363512754, -0.0834445878863335, 0.117792196571827, 32693, 31842, 23290, NaN
1472691640.044, -0.0240695718675852, -0.0837691724300385, 0.116981707513332, 32688, 31836, 23290, NaN
1472691641.05, -0.0208198539912701, -0.0847601294517517, 0.116807721555233, 32698, 31837, 23287, NaN
1472691642.05, -0.0172994043678045, -0.085075855255127, 0.117613345384598, 32685, 31846, 23294, NaN
1472691643.05, -0.0136990481987596, -0.0861774533987045, 0.117351360619068, 32685, 31848, 23292, NaN
1472691644.05, -0.0107975024729967, -0.0855610594153404, 0.117091730237007, 32686, 31845, 23291, NaN
1472691645.05, -0.00899142678827047, -0.0852295160293579, 0.116626866161823, 32693, 31859, 23284, NaN
1472691646.05, -0.00768705410882831, -0.085329994559288, 0.116698458790779, 32684, 31859, 23309, NaN
1472691647.05, -0.00663916021585464, -0.0844024568796158, 0.116311371326447, 32688, 31848, 23291, NaN
1472691648.05, -0.00565207377076149, -0.0847820192575455, 0.116853065788746, 32690, 31849, 23300, NaN
1472691649.058, -0.00501258904114366, -0.0848079174757004, 0.117058962583542, 32684, 31838, 23294, NaN
1472691649.058, -0.00449068332090974, -0.0846772342920303, 0.11741079390049, 32688, 31839, 23294, NaN
1472691650.066, -0.00453972350805998, -0.0843726694583893, 0.116713494062424, 32693, 31838, 23290, NaN
1472691651.066, -0.00529764732345939, -0.0850898027420044, 0.116183429956436, 32691, 31843, 23291, NaN
1472691652.066, -0.00556556275114417, -0.0855232179164886, 0.117064341902733, 32694, 31842, 23289, NaN
1472691653.066, -0.00488716317340732, -0.0860105082392693, 0.116919092833996, 32700, 31871, 23284, NaN
1472691653.066, -0.00276599009521306, -0.0857463553547859, 0.116902463138103, 32699, 31844, 23294, NaN
1472691654.07, 0.000275089783826843, -0.0853264853358269, 0.116797603666782, 32684, 31827, 23289, NaN
1472691655.07, 0.00250272615812719, -0.0853076502680779, 0.116550743579865, 32690, 31840, 23289, NaN
1472691656.07, 0.00388693599961698, -0.0842745751142502, 0.115181639790535, 32680, 31845, 23299, 136.288024902344
1472691657.07, 0.00535994302481413, -0.0833088532090187, 0.11452367156744, 32674, 31845, 23293, NaN
1472691658.07, 0.00755914300680161, -0.083624966442585, 0.115220740437508, 32689, 31837, 23294, NaN
1472691659.078, 0.00822097435593605, -0.0830950513482094, 0.114900782704353, 32682, 31853, 23296, NaN
1472691660.078, 0.00817177444696426, -0.0827712416648865, 0.114939570426941, 32700, 31836, 23278, NaN
1472691661.078, 0.00762447202578187, -0.0822349861264229, 0.114746019244194, 32687, 31836, 23294, NaN
1472691662.078, 0.00645359000191092, -0.0833976268768311, 0.114901706576347, 32685, 31855, 23296, NaN
1472691662.078, 0.00511402869597077, -0.0842973366379738, 0.115819334983826, 32693, 31840, 23278, NaN
1472691663.084, 0.00400481512770057, -0.0847886055707932, 0.114332415163517, 32679, 31842, 23296, NaN
1472691664.084, 0.00229845242574811, -0.0853853300213814, 0.114710867404938, 32689, 31835, 23283, NaN
1472691665.084, 0.00164134858641773, -0.085204005241394, 0.114444628357887, 32693, 31844, 23295, NaN
1472691666.084, 0.00194980320520699, -0.085400402545929, 0.115618720650673, 32694, 31840, 23287, NaN
1472691666.084, 0.00184032728429884, -0.0849781185388565, 0.116013519465923, 32689, 31846, 23289, NaN
1472691667.086, 0.00184255454223603, -0.0858549475669861, 0.115932412445545, 32687, 31837, 23298, NaN
1472691668.086, 0.00194537884090096, -0.0859184488654137, 0.116232767701149, 32672, 31851, 23295, NaN
1472691669.094, 0.00300571508705616, -0.0853955075144768, 0.11719810962677, 32688, 31853, 23317, NaN
1472691670.094, 0.00431416463106871, -0.0858424380421638, 0.11700701713562, 32682, 31837, 23298, NaN
1472691670.094, 0.00524899363517761, -0.0860066413879395, 0.116889432072639, 32686, 31828, 23308, NaN
1472691671.102, 0.00505620427429676, -0.0863214507699013, 0.116697214543819, 32687, 31847, 23287, NaN
1472691672.102, 0.00398551858961582, -0.0868667662143707, 0.117049783468246, 32693, 31849, 23304, NaN
1472691673.102, 0.00244434224441648, -0.0867331400513649, 0.118130572140217, 32689, 31841, 23291, NaN
1472691674.102, 0.00184968207031488, -0.087237611413002, 0.117470443248749, 32702, 31843, 23292, NaN
1472691675.102, 0.00141627911943942, -0.0872805565595627, 0.117999643087387, 32687, 31843, 23304, NaN
1472691676.102, -2.25454041355988e-05, -0.0877759829163551, 0.118119485676289, 32687, 31849, 23286, NaN
1472691677.102, -0.000514881103299558, -0.0876592546701431, 0.117745496332645, 32685, 31845, 23289, NaN
1472691678.102, -0.00038752646651119, -0.0879609435796738, 0.118197783827782, 32699, 31854, 23295, NaN
1472691679.102, 0.000673834176268429, -0.0880894511938095, 0.118948951363564, 32697, 31845, 23296, NaN
1472691680.112, 0.00113326404243708, -0.0883056223392487, 0.118069633841515, 32685, 31838, 23303, NaN
1472691681.112, 0.00181667634751648, -0.088239811360836, 0.118019081652164, 32691, 31848, 23288, NaN
1472691682.112, 0.00224025058560073, -0.0880724340677261, 0.118675254285336, 32686, 31845, 23297, NaN
1472691683.112, 0.00155366293620318, -0.0881229862570763, 0.119438737630844, 32681, 31837, 23294, NaN
1472691684.112, 0.00133767211809754, -0.0888734012842178, 0.119688436388969, 32677, 31841, 23296, NaN
1472691685.112, 0.00174109369982034, -0.0890633910894394, 0.119821295142174, 32696, 31842, 23296, NaN
1472691686.112, 0.00190769881010056, -0.0898945331573486, 0.12034460157156, 32686, 31842, 23293, NaN
1472691687.112, 0.00156589469406754, -0.0898907408118248, 0.120280720293522, 32685, 31857, 23300, NaN
1472691688.112, 0.000969605636782944, -0.0907817482948303, 0.120820708572865, 32687, 31847, 23292, NaN
1472691689.112, 0.000130744519992732, -0.0913441330194473, 0.120972737669945, 32691, 31846, 23298, NaN
1472691690.112, 0.000134528265334666, -0.0912268832325935, 0.121060162782669, 32697, 31841, 23295, NaN
1472691691.112, 0.000850505719427019, -0.0908321738243103, 0.120353691279888, 32689, 31857, 23293, NaN
1472691692.12, 0.000732649525161833, -0.08988156914711, 0.120778620243073, 32682, 31853, 23293, NaN
1472691693.12, 0.000569491123314947, -0.0899685695767403, 0.120569966733456, 32692, 31847, 23298, NaN
1472691693.12, -0.000228274191613309, -0.0895895957946777, 0.119924619793892, 32682, 31842, 23293, NaN
1472691694.128, -0.00124709168449044, -0.0896691009402275, 0.118914395570755, 32692, 31857, 23289, NaN
1472691695.128, -0.0018486863700673, -0.0894205272197723, 0.119346380233765, 32700, 31841, 23288, NaN
1472691696.128, -0.00361125613562763, -0.0892580598592758, 0.119769796729088, 32683, 31841, 23303, NaN
1472691697.128, -0.00500281015411019, -0.0902003347873688, 0.119502633810043, 32680, 31845, 23304, NaN
1472691698.128, -0.00505735725164413, -0.0908040031790733, 0.118863955140114, 32691, 31851, 23305, NaN
1472691699.128, -0.00443098414689302, -0.0919818133115768, 0.119331128895283, 32685, 31854, 23299, NaN
1472691700.128, -0.00129854446277022, -0.0924990102648735, 0.119557917118073, 32677, 31851, 23298, NaN
1472691701.128, 0.00505623780190945, -0.0932035893201828, 0.119192607700825, 32676, 31846, 23289, NaN
1472691702.128, 0.0158545486629009, -0.0933115258812904, 0.119127817451954, 32694, 31844, 23288, NaN
1472691702.128, 0.0297870356589556, -0.0927598923444748, 0.119484342634678, 32698, 31851, 23284, NaN
1472691703.136, 0.0446651205420494, -0.0925248265266418, 0.118696108460426, 32692, 31844, 23291, NaN
1472691704.136, 0.0384152345359325, -0.092059001326561, 0.119288876652718, 32686, 31854, 23290, NaN
1472691705.136, 0.0247049946337938, -0.0916526168584824, 0.11919080466032, 32688, 31849, 23287, NaN
1472691706.136, 0.0130745694041252, -0.0919904559850693, 0.118540227413177, 32701, 31848, 23286, NaN
1472691706.136, 0.00335306930355728, -0.0918612107634544, 0.118106655776501, 32696, 31842, 23295, NaN
1472691707.14, -0.00462697399780154, -0.0908627435564995, 0.11808006465435, 32690, 31842, 23282, NaN
1472691708.14, -0.0110288914293051, -0.0899509713053703, 0.117749586701393, 32686, 31843, 23297, NaN
1472691709.14, -0.0160111449658871, -0.0893624350428581, 0.117336392402649, 32691, 31836, 23297, NaN
1472691710.14, -0.0197266153991222, -0.0884126275777817, 0.1175756752491, 32690, 31855, 23278, 135.904525756836
1472691711.14, -0.0223219245672226, -0.087995782494545, 0.118127800524235, 32688, 31851, 23293, NaN
1472691712.14, -0.0239368341863155, -0.0874927267432213, 0.118118792772293, 32698, 31845, 23305, NaN
1472691713.148, -0.0247037019580603, -0.0871016532182693, 0.118426717817783, 32697, 31850, 23291, NaN
1472691714.148, -0.0247470382601023, -0.0868102014064789, 0.118612334132195, 32689, 31862, 23296, NaN
1472691715.148, -0.0241831578314304, -0.0863182544708252, 0.118170469999313, 32698, 31839, 23286, NaN
1472691715.148, -0.0231199115514755, -0.0857073739171028, 0.117805883288383, 32691, 31846, 23295, NaN
1472691716.154, -0.0216565392911434, -0.0858865231275558, 0.118727795779705, 32696, 31844, 23288, NaN
1472691717.154, -0.019883593544364, -0.0856938064098358, 0.119400583207607, 32684, 31839, 23305, NaN
1472691718.154, -0.0178829673677683, -0.0857119783759117, 0.119688652455807, 32684, 31840, 23288, NaN
1472691719.154, -0.0157280117273331, -0.0856964290142059, 0.119330063462257, 32679, 31849, 23298, NaN
1472691720.154, -0.0134837115183473, -0.0856884941458702, 0.119205929338932, 32693, 31849, 23298, NaN
1472691721.154, -0.0112069547176361, -0.0854529216885567, 0.119199603796005, 32688, 31857, 23292, NaN
1472691722.154, -0.00894684717059135, -0.0853109806776047, 0.118883520364761, 32675, 31839, 23291, NaN
1472691723.164, -0.00674508791416883, -0.0853118598461151, 0.118461064994335, 32677, 31846, 23289, NaN
1472691724.164, -0.00463638501241803, -0.0851901024580002, 0.118419907987118, 32703, 31845, 23285, NaN
1472691724.164, -0.00264891050755978, -0.0846932157874107, 0.11891333013773, 32690, 31840, 23291, NaN
1472691725.172, -0.000804778770543635, -0.0847355499863625, 0.118467584252357, 32689, 31838, 23294, NaN
1472691726.172, 0.000879455590620637, -0.0848156660795212, 0.117799259722233, 32680, 31844, 23303, NaN
1472691727.172, 0.00239228876307607, -0.0846768915653229, 0.117626652121544, 32690, 31841, 23291, NaN
1472691728.172, 0.003726756433025, -0.0843953043222427, 0.117146499454975, 32684, 31839, 23297, NaN
1472691728.172, 0.00487992446869612, -0.0842698365449905, 0.116739824414253, 32694, 31846, 23293, NaN
1472691729.176, 0.00585239147767425, -0.085151270031929, 0.117176562547684, 32693, 31838, 23298, NaN
1472691730.176, 0.00664780242368579, -0.0849322900176048, 0.116991929709911, 32687, 31850, 23297, NaN
1472691731.176, 0.00727238226681948, -0.085135206580162, 0.116150312125683, 32703, 31851, 23286, NaN
1472691732.176, 0.00771950697526336, -0.0851836577057838, 0.115879565477371, 32696, 31840, 23287, NaN
1472691733.186, 0.00724593037739396, -0.084417849779129, 0.115066632628441, 32695, 31844, 23299, NaN
1472691734.186, 0.0067196199670434, -0.0840665847063065, 0.114794507622719, 32691, 31839, 23283, NaN
1472691735.186, 0.00542739918455482, -0.0839393362402916, 0.114513128995895, 32683, 31840, 23295, NaN
1472691736.186, 0.00289234844967723, -0.0841530188918114, 0.114362888038158, 32698, 31833, 23288, NaN
1472691737.186, 0.000132796165416948, -0.0846553221344948, 0.11528080701828, 32703, 31838, 23280, NaN
1472691738.186, -0.00290567521005869, -0.0839724540710449, 0.115587547421455, 32694, 31837, 23295, NaN
1472691739.186, -0.00624588830396533, -0.0830937176942825, 0.114830829203129, 32688, 31856, 23290, NaN
1472691740.186, -0.00852340925484896, -0.0838525742292404, 0.114288412034512, 32674, 31853, 23306, NaN
1472691741.186, -0.0114081455394626, -0.0839634388685226, 0.114279553294182, 32699, 31835, 23282, NaN
1472691742.186, -0.0145705817267299, -0.0850584357976913, 0.114051923155785, 32691, 31843, 23304, NaN
1472691743.186, -0.017794931307435, -0.0850066021084785, 0.114085800945759, 32696, 31844, 23285, NaN
1472691744.186, -0.0195749755948782, -0.0848770514130592, 0.113225907087326, 32703, 31843, 23298, NaN
1472691745.194, -0.0197147093713284, -0.0845344737172127, 0.112557902932167, 32681, 31851, 23304, NaN
1472691746.194, -0.0185464564710855, -0.0836916044354439, 0.112282782793045, 32693, 31844, 23295, NaN
1472691746.194, -0.0159332025796175, -0.083902396261692, 0.112075708806515, 32690, 31839, 23280, NaN
1472691747.202, -0.0122278276830912, -0.0845855325460434, 0.11210735887289, 32677, 31841, 23309, NaN
1472691748.202, -0.00779323047026992, -0.0840901583433151, 0.112499788403511, 32691, 31846, 23289, NaN
1472691749.202, -0.00274500087834895, -0.0839674472808838, 0.112249583005905, 32685, 31846, 23301, NaN
1472691750.202, 0.00200133444741368, -0.084824450314045, 0.112472794950008, 32691, 31840, 23296, NaN
1472691751.202, 0.00640269462019205, -0.0844873413443565, 0.11251974850893, 32683, 31848, 23309, NaN
1472691752.202, 0.00918083917349577, -0.0850432887673378, 0.111867375671864, 32687, 31838, 23303, NaN
1472691753.202, 0.0125133041292429, -0.0852047950029373, 0.112267106771469, 32689, 31845, 23295, NaN
1472691754.202, 0.0155057525262237, -0.0850476622581482, 0.112547673285007, 32684, 31854, 23291, NaN
1472691755.202, 0.0184649378061295, -0.085065558552742, 0.112794168293476, 32690, 31845, 23278, NaN
1472691755.202, 0.0215587578713894, -0.0851977169513702, 0.11319026350975, 32696, 31847, 23288, NaN
1472691756.21, 0.0243261959403753, -0.0847645476460457, 0.11365320533514, 32698, 31841, 23289, NaN
1472691757.21, 0.0268265884369612, -0.0850886926054955, 0.113585703074932, 32686, 31848, 23290, NaN
1472691758.21, 0.0296046324074268, -0.0852959156036377, 0.113961189985275, 32691, 31848, 23305, NaN
1472691759.21, 0.0317821614444256, -0.0854606926441193, 0.113985076546669, 32673, 31856, 23303, NaN
1472691759.21, 0.0333650894463062, -0.0852663889527321, 0.114764183759689, 32688, 31848, 23303, NaN
1472691760.214, 0.0342731326818466, -0.0856373757123947, 0.114565014839172, 32686, 31840, 23288, NaN
1472691761.214, 0.0336327068507671, -0.0853759720921516, 0.115235671401024, 32687, 31839, 23287, NaN
1472691762.214, 0.0323112793266773, -0.0845402255654335, 0.115442156791687, 32685, 31847, 23300, NaN
1472691763.214, 0.0306760780513287, -0.084297887980938, 0.115331403911114, 32695, 31840, 23286, NaN
1472691764.214, 0.0282543785870075, -0.0844847783446312, 0.114855021238327, 32704, 31843, 23289, 135.517990112305
1472691765.214, 0.0252716075628996, -0.0844831541180611, 0.114418111741543, 32689, 31842, 23290, NaN
1472691766.222, 0.021849824115634, -0.0847990363836288, 0.115688294172287, 32700, 31840, 23282, NaN
1472691767.222, 0.0182925146073103, -0.0855034962296486, 0.11636633425951, 32702, 31846, 23301, NaN
1472691768.222, 0.0137474751099944, -0.0854870229959488, 0.115348957479, 32687, 31846, 23291, NaN
1472691768.222, 0.00964351091533899, -0.0854087620973587, 0.115989856421947, 32686, 31847, 23302, NaN
1472691769.228, 0.00438020844012499, -0.0853257924318314, 0.1163280159235, 32697, 31834, 23296, NaN
1472691770.228, -0.000331462040776387, -0.0860637798905373, 0.117251567542553, 32685, 31849, 23292, NaN
1472691771.228, -0.00445968564599752, -0.0861761793494225, 0.118338018655777, 32694, 31846, 23293, NaN
1472691772.228, -0.00724276108667254, -0.086551733314991, 0.117936722934246, 32680, 31847, 23285, NaN
1472691773.228, -0.00873691495507956, -0.0866404324769974, 0.118175730109215, 32695, 31853, 23294, NaN
1472691774.228, -0.00958364829421043, -0.0864883065223694, 0.118606604635715, 32691, 31841, 23295, NaN
1472691775.228, -0.0100156115368009, -0.0861619412899017, 0.119130998849869, 32690, 31842, 23290, NaN
1472691776.228, -0.0109539926052094, -0.0856307148933411, 0.119523040950298, 32672, 31855, 23310, NaN
1472691777.238, -0.0122764119878411, -0.0849556997418404, 0.118622519075871, 32697, 31845, 23289, NaN
1472691777.238, -0.0136112319305539, -0.08468958735466, 0.118821851909161, 32687, 31837, 23306, NaN
1472691778.246, -0.0150572713464499, -0.0855798795819283, 0.118673697113991, 32685, 31833, 23296, NaN
1472691779.246, -0.015381389297545, -0.0862720459699631, 0.119224451482296, 32686, 31839, 23304, NaN
1472691780.246, -0.0147996759042144, -0.0859417989850044, 0.119731672108173, 32696, 31841, 23287, NaN
1472691781.246, -0.014423955231905, -0.0858244299888611, 0.119438767433167, 32687, 31842, 23293, NaN
1472691781.246, -0.0151961175724864, -0.085534043610096, 0.119206123054028, 32689, 31848, 23301, NaN
1472691782.25, -0.0153181785717607, -0.0857280865311623, 0.119066223502159, 32685, 31849, 23289, NaN
1472691783.25, -0.0105751492083073, -0.0857969671487808, 0.118917688727379, 32699, 31847, 23293, NaN
1472691784.25, 0.00142016855534166, -0.0854447111487389, 0.118485957384109, 32696, 31844, 23295, NaN
1472691785.25, 0.0212867259979248, -0.0844970121979713, 0.117961503565311, 32698, 31849, 23296, NaN
1472691786.25, 0.0474369488656521, -0.0845964774489403, 0.118239723145962, 32692, 31839, 23300, NaN
1472691787.258, 0.0599975101649761, -0.0845193639397621, 0.118477545678616, 32688, 31853, 23297, NaN
1472691788.258, 0.0380864851176739, -0.083902932703495, 0.11848408728838, 32694, 31845, 23292, NaN
1472691789.258, 0.0195784904062748, -0.0841599553823471, 0.118678562343121, 32682, 31837, 23292, NaN
1472691790.258, 0.00418298551812768, -0.0841697305440903, 0.118806295096874, 32684, 31845, 23283, NaN
1472691791.258, -0.0083831399679184, -0.0842246413230896, 0.119634501636028, 32687, 31847, 23293, NaN
1472691792.258, -0.0183945223689079, -0.0840480849146843, 0.119124941527843, 32674, 31843, 23303, NaN
1472691793.258, -0.0261162593960762, -0.0840412899851799, 0.119594193994999, 32690, 31841, 23283, NaN
1472691794.258, -0.0318028777837753, -0.0839293673634529, 0.119510293006897, 32681, 31847, 23306, NaN
1472691795.258, -0.0356973707675934, -0.0841969922184944, 0.119556859135628, 32697, 31839, 23284, NaN
1472691796.258, -0.038030318915844, -0.083998404443264, 0.119837023317814, 32686, 31834, 23293, NaN
1472691797.258, -0.0390191711485386, -0.083552397787571, 0.119898475706577, 32698, 31843, 23297, NaN
1472691798.258, -0.0388676300644875, -0.0838476195931435, 0.120352260768414, 32684, 31839, 23289, NaN
1472691799.266, -0.0377651937305927, -0.0833837389945984, 0.120017938315868, 32687, 31831, 23298, NaN
1472691799.266, -0.0358868800103664, -0.083395890891552, 0.119839653372765, 32690, 31844, 23292, NaN
1472691800.274, -0.0333930440247059, -0.0836878418922424, 0.119765363633633, 32688, 31847, 23295, NaN
1472691801.274, -0.0304294098168612, -0.0838868021965027, 0.118778616189957, 32687, 31849, 23294, NaN
1472691802.274, -0.0271271876990795, -0.0840485990047455, 0.118443436920643, 32680, 31845, 23294, NaN
1472691803.274, -0.0236033573746681, -0.0842179507017136, 0.118224494159222, 32678, 31849, 23293, NaN
1472691804.274, -0.019961055368185, -0.0840810090303421, 0.117969192564487, 32689, 31842, 23291, NaN
1472691805.274, -0.0162900742143393, -0.0841362550854683, 0.118175007402897, 32685, 31846, 23286, NaN
1472691806.274, -0.0126674463972449, -0.0840990617871284, 0.118218474090099, 32687, 31844, 23302, NaN
1472691807.274, -0.00915812328457832, -0.084916315972805, 0.117771200835705, 32695, 31828, 23295, NaN
1472691808.274, -0.00581570155918598, -0.0844460278749466, 0.118482954800129, 32692, 31844, 23297, NaN
1472691809.274, -0.00268320669420063, -0.0843717157840729, 0.1177127212286, 32704, 31837, 23289, NaN
1472691810.282, 0.00020608605700545, -0.083515428006649, 0.117677077651024, 32684, 31853, 23287, NaN
1472691811.282, 0.00282780989073217, -0.0831331685185432, 0.117314279079437, 32684, 31844, 23294, NaN
1472691812.282, 0.00516565330326557, -0.0835263133049011, 0.11631029099226, 32681, 31845, 23299, NaN
1472691813.282, 0.00721050798892975, -0.0837249234318733, 0.115539401769638, 32693, 31844, 23301, NaN
1472691814.282, 0.00895962491631508, -0.0829269289970398, 0.114756643772125, 32701, 31844, 23293, NaN